DIRECTV 11 (32729 NORAD) Tracking and Keplerian Element Data

This shows tracking and keplerian element data for the satellite.

Feedback or suggestion? Click here.




ElementValue
Catalog32729
NameDIRECTV 11
Epoch Orbit1662
Epoch Day198.89429314
Epoch Year2018
RAAN169.1317
Inclination0.0153
Eccentricity1.13E-05
Argument of Perigee103.695
Mean Anonmoly245.5758
Mean Motion1.00270016
Decay Rate-1.45E-06
L11 32729U 08013A 18198.89429314 -.00000145 00000-0 00000-0 0 9993
L22 32729 0.0153 169.1317 0000113 103.6950 245.5758 1.00270016 16629

Live tracking and technical data element details for DIRECTV 11 (NORAD 32729). DIRECTV 11 can be tracked NOW for your location showing map with azimuth and elevation plus other details from your city location.

Track the satellite on the map from your city or location and see movement details for azimuth, elevation, latitude, longitude, range, height, and movement on the map or in text.







IsCatalogInMostPopularTable: catalog: 32729, numindb: 39
Update: records affected: 1



GetName: 32729 DIRECTV 11

Hit Count: updated at: Sat, 21 Jul 2018 07:44:32 GMT